Regional Weather Roundup
Issued by NWS

Home | Current Version | Previous Version | Text Only | Print | Product List | Glossary Off
Versions: 1 2 3 4 5 6 7 8 9 10 11 12 13 14 15 16 17 18 19 20 21 22 23 24 25 26 27 28 29 30 31 32 33 34 35 36 37 38 39 40 41 42 43 44 45 46 47 48 49 50

000
ASUS45 KBOI 291410
RWRID
WEATHER ROUNDUP FOR IDAHO
NATIONAL WEATHER SERVICE BOISE ID
800 AM MDT FRI AUG 29 2014

NOTE: "FAIR" INDICATES FEW OR NO CLOUDS BELOW 12000 FEET
WITH NO SIGNIFICANT WEATHER AND/OR OBSTRUCTIONS TO VISIBILITY

IDZ012-014-291500-
SOUTHWEST IDAHO


CITY           SKY/WX    TMP DP  RH WIND       PRES   REMARKS
BOISE          CLEAR     63  39  41 SE7       29.99R
CALDWELL       PTCLDY    57  41  54 CALM      30.00R
MOUNTAIN HOME  PTCLDY    58  40  51 NW2       30.00R
$$

IDZ016-017-291500-
SOUTHCENTRAL IDAHO


CITY           SKY/WX    TMP DP  RH WIND       PRES   REMARKS
BURLEY         SUNNY     55  47  74 CALM      30.06R
JEROME         SUNNY     60  47  61 CALM      30.06R
TWIN FALLS     SUNNY     65  45  48 SW9       30.06R
$$

IDZ019>023-291500-
SOUTHEAST IDAHO


CITY           SKY/WX    TMP DP  RH WIND       PRES   REMARKS
IDAHO FALLS    SUNNY     51  47  86 CALM      30.12R
POCATELLO      MOSUNNY   56  48  74 SW3       30.10R
REXBURG        SUNNY     52  46  80 CALM      30.13R
$$

IDZ006-010-011-018-031-032-291500-
CENTRAL IDAHO MOUNTAINS


CITY           SKY/WX    TMP DP  RH WIND       PRES   REMARKS
MCCALL         CLEAR     48  40  73 CALM      30.09S
HAILEY         MOSUNNY   54  39  58 NW12      30.15R
STANLEY          N/A     37  34  89 CALM      30.24R
SALMON         MOSUNNY   48  46  93 CALM      30.10R
CHALLIS        SUNNY     53  42  66 CALM      30.14R
$$

IDZ002-004-006-007-026-291500-
NORTHERN IDAHO


CITY           SKY/WX    TMP DP  RH WIND       PRES   REMARKS
LEWISTON       CLEAR     61  46  57 E3        29.96R
LOWELL           N/A     52  49  89 N3        30.04S
COEUR D`ALENE  CLEAR     55  46  71 E5        29.96R
MULLAN PASS    CLEAR     51  39  63 S7        30.11S
$$



USA.gov is the U.S. government's official web portal to all federal, state and local government web resources and services.